Flag for United Kingdom Weather past 2 weeks in Leeds, England, United Kingdom

Now
61 °F

Passing clouds.


Feels Like: 61 °F
Forecast: 53 / 70 °F
Wind: 16 mph from East

Location: Leeds And Bradford

Current Time: Aug 27, 2014 at 6:12:31 PM

Latest Report: Aug 27, 2014 at 5:20 PM


Visibility: N/A

Pressure: 29.92 "Hg

Humidity: 68%

Dew point: 50 °F

Location of LeedsLocation

Historic Weather in Leeds — Graph

°F

Leeds temperature yesterday

Maximum temperature yesterday: 61 °F (at 3:20 PM)
Minimum temperature yesterday: 48 °F (at 10:50 PM)
Average temperature yesterday: 54 °F

Past Weeks' High & Low Weather Summary

 TemperatureHumidityPressure
High64 °F (Aug 14, 2:50 PM)100% (Aug 13, 7:20 AM)30.09 "Hg (Aug 13, 7:20 AM)
Low43 °F (Aug 20, 4:50 AM)42% (Aug 24, 4:20 PM)29.50 "Hg (Aug 13, 12:50 AM)
Average53 °F81%29.84 "Hg
* Reported Aug 12 3:20 PM — Aug 27 3:50 PM, Leeds, Weather by CustomWeather, © 2014

Note: Actual official high and low records may vary slightly from our data, if they occured in-between our weather recording intervals... More about our weather records

Advertising

Leeds weather history for previous 24 hours

 ConditionsComfort  
Time TempWeatherWind HumidityBarometerVisibility
3:50 PM
Aug 27
61 °FScattered clouds.15 mph63%29.95 "HgN/A
3:20 PM61 °FScattered clouds.14 mph63%29.95 "HgN/A
2:50 PM61 °FScattered clouds.13 mph68%29.98 "HgN/A
2:20 PM61 °FPartly sunny.12 mph68%29.98 "HgN/A
1:50 PM59 °FPartly sunny.12 mph68%29.98 "HgN/A
1:20 PM57 °FScattered clouds.12 mph72%30.01 "HgN/A
12:50 PM59 °FScattered clouds.10 mph68%30.01 "HgN/A
12:20 PM57 °FScattered clouds.10 mph72%30.01 "HgN/A
11:20 AM57 °FScattered clouds.10 mph72%30.04 "HgN/A
10:50 AM57 °FScattered clouds.7 mph72%30.04 "HgN/A
10:20 AM57 °FScattered clouds.8 mph72%30.04 "HgN/A
9:50 AM55 °FPartly sunny.7 mph77%30.04 "HgN/A
9:20 AM54 °FPartly sunny.7 mph82%30.04 "HgN/A
8:50 AM52 °FPartly sunny.5 mph88%30.04 "HgN/A
8:20 AM50 °FPartly sunny.6 mph88%30.04 "HgN/A
7:50 AM50 °FPartly sunny.5 mph88%30.04 "HgN/A
7:20 AM50 °FPartly sunny.6 mph88%30.04 "HgN/A
6:50 AM50 °FPassing clouds.5 mph88%30.04 "HgN/A
6:20 AM50 °FPassing clouds.5 mph88%30.01 "HgN/A
5:50 AM50 °FPassing clouds.3 mph94%30.01 "HgN/A
5:20 AM50 °FPassing clouds.5 mph94%30.01 "HgN/A
4:50 AM50 °FPassing clouds.5 mph94%30.01 "HgN/A
4:20 AM50 °FPassing clouds.6 mph94%30.01 "HgN/A
3:50 AM50 °FPassing clouds.6 mph94%30.01 "HgN/A
3:20 AM50 °FPassing clouds.5 mph94%30.01 "HgN/A
2:50 AM50 °FPassing clouds.6 mph94%30.01 "HgN/A
2:20 AM50 °FPassing clouds.5 mph94%30.01 "HgN/A
1:50 AM50 °FPassing clouds.3 mph94%30.01 "HgN/A
12:50 AM50 °FPassing clouds.3 mph88%30.01 "HgN/A
12:20 AM50 °FPassing clouds.5 mph94%30.01 "HgN/A
11:50 PM
Aug 26
50 °FPassing clouds.5 mph88%30.01 "HgN/A
11:20 PM50 °FPassing clouds.2 mph88%30.01 "HgN/A
10:50 PM48 °FPassing clouds.5 mph87%29.98 "HgN/A
9:20 PM50 °FPassing clouds.6 mph82%29.98 "HgN/A
8:50 PM50 °FPassing clouds.6 mph88%29.98 "HgN/A
8:20 PM52 °FScattered clouds.7 mph82%29.95 "HgN/A
7:50 PM54 °FScattered clouds.8 mph77%29.95 "HgN/A
7:20 PM55 °FScattered clouds.8 mph67%29.92 "HgN/A
6:50 PM57 °FScattered clouds.9 mph63%29.92 "HgN/A
6:20 PM57 °FScattered clouds.10 mph63%29.92 "HgN/A
Weather by CustomWeather, © 2014

See weather overviewHow to use our weather pages